This demonstration page uses our WeatherBlox Daily Observations layout. Learn more.

Left ArrowRight Arrow

Hourly Observations for September 24, 2020

Temp ( °F °C ) Dew Point ( °F °C ) Humidity (%) Winds ( mph kmh ) Pressure ( in mb ) Visibility ( mi km ) Precip ( " mm )
12:51 am 00:51 Clear 75 23.9 41 5 29 29 NW 9 15 29.81 1010 10 16.0934 0 0
1:51 am 01:51 Clear 75 23.9 41 5 29 29 SW 6 9 29.8 1009 10 16.0934 0 0
2:51 am 02:51 Clear 68 20 40 4.4 36 36 SE 6 9 29.82 1010 10 16.0934 0 0
3:51 am 03:51 Clear 66 18.9 40 4.4 39 39 SSE 6 9 29.83 1010 10 16.0934 0 0
4:51 am 04:51 Clear 63 17.2 39 3.9 41 41 Calm 29.84 1011 10 16.0934 0 0
5:51 am 05:51 Clear 62 16.7 38 3.3 41 41 SSE 3 6 29.87 1011 10 16.0934 0 0
6:51 am 06:51 Sunny 65 18.3 38 3.3 37 37 ESE 3 6 29.89 1012 10 16.0934 0 0
7:51 am 07:51 Sunny 72 22.2 39 3.9 30 30 SSE 5 7 29.9 1013 10 16.0934 0 0
8:51 am 08:51 Sunny 79 26.1 40 4.4 25 25 SE 3 6 29.9 1013 10 16.0934 0 0
9:51 am 09:51 Sunny 85 29.4 38 3.3 19 19 SSE 5 7 29.89 1012 10 16.0934 0 0
10:51 am 10:51 Sunny 90 32.2 37 2.8 15 15 SE 5 7 29.86 1011 10 16.0934 0 0
11:51 am 11:51 Sunny 92 33.3 37 2.8 14 14 Calm 29.83 1010 10 16.0934 0 0
12:51 pm 12:51 Sunny 96 35.6 37 2.8 13 13 WSW 8 13 29.8 1009 10 16.0934 0 0
1:51 pm 13:51 Sunny 98 36.7 33 0.6 10 10 SSE 6 9 29.76 1008 10 16.0934 0 0
2:51 pm 14:51 Sunny 100 37.8 33 0.6 10 10 undefined N/A 29.75 1007 10 16.0934 0 0
3:51 pm 15:51 Sunny 99 37.2 30 -1.1 9 9 VRB 5 7 29.73 1007 10 16.0934 0 0
4:51 pm 16:51 Sunny 98 36.7 31 -0.6 9 9 W 8 13 29.72 1007 10 16.0934 0 0
5:51 pm 17:51 Sunny 95 35 32 0 11 11 WSW 6 9 29.73 1007 10 16.0934 0 0
6:51 pm 18:51 Clear 90 32.2 32 0 13 13 SW 5 7 29.73 1007 10 16.0934 0 0
7:51 pm 19:51 Clear 82 27.8 29 -1.7 14 14 NNW 7 11 29.75 1008 10 16.0934 0 0
8:51 pm 20:51 Clear 84 28.9 34 1.1 17 17 NNW 8 13 29.76 1008 10 16.0934 0 0
9:51 pm 21:51 Clear 79 26.1 34 1.1 20 20 NW 9 15 29.77 1008 10 16.0934 0 0
10:51 pm 22:51 Clear 77 25 34 1.1 21 21 NW 7 11 29.76 1008 10 16.0934 0 0
11:51 pm 23:51 Clear 75 23.9 34 1.1 22 22 Calm 29.76 1008 10 16.0934 0 0

Powered by AerisWeather